Location: Unspecified
(43.1763°N, 79.4719°W)
Time: 16:05:33
(UTC-04:00)

Cosmos 1674 - Visible Passes

Search period start: 25 May 2017 00:00
Search period end: 04 June 2017 00:00
Orbit: 499 x 522 km, 82.5° (Epoch: 24 May)

Date Brightness Start Highest point End Pass type
(mag) Time Alt. Az. Time Alt. Az. Time Alt. Az.
25 May 3.5 02:05:00 48° ENE 02:05:00 48° ENE 02:08:13 10° NNE visible
25 May 5.1 03:39:54 11° WNW 03:40:24 11° WNW 03:41:42 10° NW visible
26 May 3.8 01:48:35 38° ENE 01:48:35 38° ENE 01:51:35 10° NNE visible
26 May 4.9 03:23:29 14° WNW 03:23:45 14° WNW 03:25:53 10° NW visible
27 May 4.2 01:32:09 30° ENE 01:32:09 30° ENE 01:34:54 10° NNE visible
27 May 4.7 03:07:03 17° WNW 03:07:07 17° WNW 03:09:47 10° NNW visible
28 May 4.5 01:15:42 24° ENE 01:15:42 24° ENE 01:18:11 10° NNE visible
28 May 4.5 02:50:36 21° WNW 02:50:36 21° WNW 02:53:32 10° NNW visible
29 May 4.8 00:59:14 20° ENE 00:59:14 20° ENE 01:01:23 10° NE visible
29 May 4.2 02:34:08 26° WNW 02:34:08 26° WNW 02:37:13 10° NNW visible
30 May 5.0 00:42:46 16° ENE 00:42:46 16° ENE 00:44:29 10° NE visible
30 May 3.9 02:17:40 32° WNW 02:17:40 32° WNW 02:20:50 10° N visible
31 May 5.2 00:26:17 13° ENE 00:26:17 13° ENE 00:27:25 10° NE visible
31 May 3.7 02:01:11 40° WNW 02:01:11 40° WNW 02:04:24 10° N visible
01 Jun 5.4 00:09:47 10° ENE 00:09:47 10° ENE 00:09:51 10° ENE visible
01 Jun 3.4 01:44:41 49° NW 01:44:41 49° NW 01:47:55 10° N visible
02 Jun 3.2 01:28:10 57° NNW 01:28:10 57° NNW 01:31:25 10° N visible
03 Jun 3.1 01:11:38 61° N 01:11:38 61° N 01:14:52 10° N visible
